OneWeb SL0043

operational
NORAD ID: 45149 Int'l Des: 2020-008 Owner: ONEWEB Country: UK Constellation: oneweb
LEOCIRCULARPOLARONEWEB_TYPE

About OneWeb SL0043

Description loading...

Live Position

Loading 3D Globe...

Upcoming Passes

Altitude History

Altitude vs Time

uPlot chart will show altitude changes over time

Two-Line Element Set

1 45149U 20008U 25257.55332031 -.00000168 00000-0 -51633-3 0 9994
2 45149 87.8734 91.2356 0002028 77.7150 282.4204 13.10369158272085
Epoch: Sep 14, 2025 • Age: 18 hours

Current Status

Altitude 1250.9 km
Velocity 7.23 km/s
Sub-Earth Point -77.17°S, 20.93°W
Launch Date Feb 6, 2020
Age 5.6 years
Type internet

Technical Details

Classification Payload
Mass 148.00 kg
Dry Mass 140.00 kg
Total Mass 148.00 kg
Length 1.30 m
Diameter 1.00 m
Span 5.00 m
Shape Trapezoid+2 pan
Manufacturer ONEWUS
Bus Type ARROW
Phase Status In Orbit
Owner/State ONEWEB/UK

Large Constellations

Loading constellations...